Biggs, California, United States (95917)
Lat: 39.41N, Lon: 121.71W
Wx Zone: CAZ016
Local Info
Past Weather Observations for Wednesday, May 20, 2015

NOTE: This archive is for the closest National Weather Service station to Biggs. Information may differ from the station used for current weather conditions.

Click here for Long-term Archive

Time Weather Temperature Dewpoint Humidity Pressure Winds Precip Visibility
23:53
Partly Cloudy
61°F / 16°C 52°F / 11°C 72% 29.92 in
(1013 mb)
SE 12.7 mph
(SE 20 kph)
- 10SM
22:53
Mostly Cloudy
63°F / 17°C 52°F / 11°C 68% 29.92 in
(1013 mb)
SE 11.5 mph
(SE 19 kph)
- 10SM
21:53
Overcast
63°F / 17°C 52°F / 11°C 68% 29.92 in
(1013 mb)
SE 16.1 mph
(SE 26 kph)
- 10SM
20:53
Clear
64°F / 18°C 52°F / 11°C 64% 29.89 in
(1012 mb)
SSE 12.7 mph
(SSE 20 kph)
- 10SM
19:53
Clear
70°F / 21°C 52°F / 11°C 53% 29.86 in
(1011 mb)
SSE 11.5 mph
(SSE 19 kph)
- 10SM
18:53
Clear
73°F / 23°C 46°F / 8°C 38% 29.83 in
(1010 mb)
S 13.8 mph
(S 22 kph)
- 10SM
17:53
Clear
79°F / 26°C 45°F / 7°C 30% 29.83 in
(1010 mb)
S 10.4 mph
(S 17 kph)
- 10SM
16:53
Clear
79°F / 26°C 45°F / 7°C 30% 29.83 in
(1010 mb)
S 9.2 mph
(S 15 kph)
- 10SM
15:53
Clear
81°F / 27°C 46°F / 8°C 30% 29.83 in
(1010 mb)
S 11.5 mph
(S 19 kph)
- 10SM
14:53
Clear
79°F / 26°C 45°F / 7°C 30% 29.86 in
(1011 mb)
Variable 4.6 mph
(Variable 7 kph)
- 10SM
13:53
Clear
79°F / 26°C 46°F / 8°C 32% 29.89 in
(1012 mb)
Calm - 10SM
12:53
Clear
75°F / 24°C 48°F / 9°C 39% 29.89 in
(1012 mb)
Calm - 10SM
11:53
Clear
73°F / 23°C 48°F / 9°C 41% 29.89 in
(1012 mb)
SSE 9.2 mph
(SSE 15 kph)
- 10SM
10:53
Clear
72°F / 22°C 48°F / 9°C 44% 29.92 in
(1013 mb)
SSE 8.1 mph
(SSE 13 kph)
- 10SM
09:53
Clear
66°F / 19°C 48°F / 9°C 52% 29.95 in
(1014 mb)
Variable 6.9 mph
(Variable 11 kph)
- 10SM
08:53
Clear
64°F / 18°C 50°F / 10°C 60% 29.95 in
(1014 mb)
S 6.9 mph
(S 11 kph)
- 10SM
07:53
Clear
63°F / 17°C 48°F / 9°C 59% 29.95 in
(1014 mb)
S 10.4 mph
(S 17 kph)
- 10SM
06:53
Overcast
57°F / 14°C 48°F / 9°C 72% 29.95 in
(1014 mb)
SE 9.2 mph
(SE 15 kph)
- 10SM
05:53
Overcast
55°F / 13°C 48°F / 9°C 77% 29.95 in
(1014 mb)
E 6.9 mph
(E 11 kph)
- 10SM
04:53
Overcast
54°F / 12°C 50°F / 10°C 88% 29.95 in
(1014 mb)
SE 5.8 mph
(SE 9 kph)
- 10SM
03:53
Overcast
55°F / 13°C 50°F / 10°C 82% 29.95 in
(1014 mb)
SSE 6.9 mph
(SSE 11 kph)
- 10SM
02:53
Mostly Cloudy
55°F / 13°C 52°F / 11°C 88% 29.92 in
(1013 mb)
SSE 5.8 mph
(SSE 9 kph)
- 10SM
01:53
Clear
57°F / 14°C 52°F / 11°C 82% 29.92 in
(1013 mb)
SSE 10.4 mph
(SSE 17 kph)
- 10SM
00:53
Clear
59°F / 15°C 52°F / 11°C 77% 29.95 in
(1014 mb)
SSE 8.1 mph
(SSE 13 kph)
- 10SM
Time Weather Temperature Dewpoint Humidity Pressure Winds Precip Visibility


Weather for websites

WeatherForYou.com, LLC is not responsible for any damages or problems caused by this service. Current weather conditions are obtained from the closest station including government and personal stations which may have varying degrees of accuracy. Weather forecasts are derived from the NOAA NDFD. Like all things, this site belongs to Jesus Christ... He just trusts us to maintain it. If you have any questions or comments email webmaster@weatherforyou.com

Copyright © 2015, WeatherForYou.com LLC. All rights reserved.